Weather History for KPIH - April, 2014

Change the Weather History Date:

Sunday, April 6, 2014

  Actual Average Record
Temperature  
Mean Temperature 48 °F 43 °F  
Max Temperature 59 °F 56 °F 74 °F (1988)
Min Temperature 36 °F 31 °F 13 °F (1997)
Degree Days  
Heating Degree Days 17 22  
Month to date heating degree days 143 133  
Since 1 July heating degree days 5854 6245  
Cooling Degree Days 0 0  
Month to date cooling degree days 0 0  
Year to date cooling degree days 0 0  
Moisture  
Dew Point 31 °F    
Average Humidity 56    
Maximum Humidity 76    
Minimum Humidity 35    
Precipitation  
Precipitation T in 0.04 in 0.79 in (1957)
Month to date precipitation 0.38 0.21  
Year to date precipitation 4.38 3.43  
Snow  
Snow 0.00 in - - ()
Month to date snowfall 3.3  
Since 1 July snowfall 29.4  
Snow Depth 0.00 in    
Sea Level Pressure  
Sea Level Pressure 30.06 in    
Wind  
Wind Speed 19 mph (SW)    
Max Wind Speed 35 mph    
Max Gust Speed 42 mph    
Visibility 10 miles    
Events Rain    
T = Trace of Precipitation, MM = Missing Value Source: NWS Daily Summary

Daily Weather History Graph

Daily Weather History Graph

Search for Another Location

Airport or City:

Trip Planner

Search our weather history database for the weather conditions in past years. The results will help you decide how hot, cold, wet, or windy it might be!

Date:

Astronomy

Apr. 06, 2014 Rise Set
Actual Time 7:03 AM MDT 8:02 PM MDT
Civil Twilight 6:34 AM MDT 8:31 PM MDT
Nautical Twilight 6:00 AM MDT 9:05 PM MDT
Astronomical Twilight 5:24 AM MDT 9:42 PM MDT
Moon 12:03 PM MDT (4/6) 2:05 AM MDT (4/6)
Length of Visible Light 13h 56m
Length of Day
12h 58m
Waxing Crescent, 44% of the Moon is Illuminated
Apr 6
Waxing Crescent
Apr 7
First Quarter
Apr 15
Full
Apr 22
Last Quarter
Apr 29
New

Hourly Weather History & Observations

Time (MDT) Temp. Windchill Dew Point Humidity Pressure Visibility Wind Dir Wind Speed Gust Speed Precip Events Conditions
12:53 AM 41.0 °F 32.8 °F 28.0 °F 60% 30.03 in 10.0 mi SW 16.1 mph - N/A   Mostly Cloudy
1:53 AM 39.0 °F 31.0 °F 28.0 °F 65% 30.03 in 10.0 mi SSW 13.8 mph - N/A   Mostly Cloudy
2:53 AM 39.0 °F 31.0 °F 28.0 °F 65% 30.02 in 10.0 mi SSW 13.8 mph - N/A   Clear
3:53 AM 37.9 °F 30.9 °F 27.0 °F 65% 30.04 in 10.0 mi SSW 10.4 mph - N/A   Mostly Cloudy
4:53 AM 39.9 °F 31.8 °F 28.0 °F 63% 30.04 in 10.0 mi SSW 15.0 mph - N/A   Overcast
5:53 AM 39.0 °F 31.8 °F 30.0 °F 70% 30.04 in 10.0 mi SSW 11.5 mph - N/A   Overcast
6:53 AM 39.9 °F 32.1 °F 30.9 °F 70% 30.06 in 10.0 mi SSW 13.8 mph - N/A   Mostly Cloudy
7:53 AM 41.0 °F 33.9 °F 32.0 °F 70% 30.07 in 10.0 mi SW 12.7 mph - N/A   Mostly Cloudy
8:53 AM 41.0 °F 31.9 °F 34.0 °F 76% 30.10 in 10.0 mi WSW 19.6 mph - N/A   Mostly Cloudy
9:53 AM 43.0 °F 34.0 °F 36.0 °F 76% 30.09 in 10.0 mi WSW 21.9 mph - N/A   Mostly Cloudy
10:53 AM 45.0 °F 37.1 °F 36.0 °F 71% 30.09 in 10.0 mi WSW 19.6 mph - N/A   Mostly Cloudy
11:53 AM 50.0 °F - 35.1 °F 57% 30.07 in 10.0 mi WSW 24.2 mph 32.2 mph N/A   Mostly Cloudy
12:53 PM 53.1 °F - 34.0 °F 48% 30.05 in 10.0 mi WSW 23.0 mph 31.1 mph N/A   Mostly Cloudy
1:53 PM 55.0 °F - 33.1 °F 43% 30.03 in 10.0 mi WSW 24.2 mph 32.2 mph N/A   Mostly Cloudy
2:53 PM 54.0 °F - 30.0 °F 40% 30.02 in 10.0 mi WSW 26.5 mph 34.5 mph N/A   Mostly Cloudy
3:53 PM 54.0 °F - 28.9 °F 38% 30.01 in 10.0 mi West 27.6 mph - N/A   Mostly Cloudy
4:53 PM 53.1 °F - 33.1 °F 47% 30.01 in 10.0 mi WSW 21.9 mph 39.1 mph 0.00 in Rain Light Rain
5:53 PM 57.0 °F - 28.9 °F 34% 29.99 in 10.0 mi WSW 31.1 mph 35.7 mph 0.00 in   Mostly Cloudy
6:53 PM 55.9 °F - 28.9 °F 36% 30.00 in 10.0 mi West 29.9 mph 36.8 mph N/A   Mostly Cloudy
7:53 PM 53.1 °F - 28.9 °F 40% 30.03 in 10.0 mi West 19.6 mph 27.6 mph N/A   Scattered Clouds
8:53 PM 50.0 °F - 28.9 °F 44% 30.08 in 10.0 mi West 24.2 mph 28.8 mph N/A   Mostly Cloudy
9:53 PM 45.0 °F 38.9 °F 30.9 °F 58% 30.13 in 10.0 mi WSW 12.7 mph - N/A   Clear
10:53 PM 43.0 °F 37.7 °F 30.9 °F 62% 30.17 in 10.0 mi SW 9.2 mph - N/A   Clear
11:53 PM 42.1 °F 34.9 °F 32.0 °F 67% 30.19 in 10.0 mi SW 13.8 mph - N/A   Clear